Voltar ao catálogo

STARLINK-38269

AtivoComunicaçõesSSO
NORAD 100392·PAYLOAD·🇺🇸 United States

Lançado Aug 19, 2026 de Vandenberg Space Force Base

Loading…

Próximas Passagens (próximas 24 horas)

TLE

AtualizadoSource: Space-Track

Época: Sep 14, 2026, 13:02 UTC

1 A0392U 26190X   26257.54336987  .00177920  00000-0  11677-2 0  9999
2 A0392  97.2842 111.5400 0001366  90.7170 269.4252 15.75216477  5437

Acompanhe STARLINK-38269 em tempo real com AllMySat

Download on the App Store